QPF
0.00 0.00 0.00 0.00 0.00 0.00 0.00 0.00 0.00 0.00 0.00 0.00 0.00 0.00 0.00 0.00 0.00 0.00 0.00 0.00 0.01 0.02 0.05 0.10 0.14 0.11 0.13 0.16 0.13 0.07 0.05 0.04 0.03 0.02 0.01 0.00 0.00 0.00 0.00 0.00 0.00 0.00 0.00 0.00
0.00 0.00 0.00 0.00 0.00 0.00 0.00 0.00 0.00 0.00 0.00 0.00 0.00 0.00 0.00 0.00 0.00 0.00 0.00 0.01 0.05 0.15 0.24 0.31 0.39 0.34 0.33 0.31 0.24 0.12 0.05 0.03 0.02 0.01 0.01 0.00 0.00 0.00 0.00 0.00 0.00 0.00 0.00 0.00
0.00 0.00 0.00 0.00 0.00 0.00 0.00 0.00 0.00 0.00 0.00 0.00 0.00 0.00 0.00 0.00 0.00 0.00 0.00 0.01 0.04 0.16 0.33 0.52 0.75 0.73 0.59 0.48 0.30 0.13 0.05 0.02 0.01 0.01 0.00 0.00 0.00 0.00 0.00 0.00 0.00 0.00 0.00 0.00
0.00 0.00 0.00 0.00 0.00 0.00 0.00 0.00 0.00 0.00 0.00 0.00 0.00 0.00 0.00 0.00 0.00 0.00 0.00 0.01 0.07 0.20 0.44 0.80 1.00 0.99 0.85 0.58 0.25 0.11 0.05 0.02 0.01 0.01 0.01 0.01 0.00 0.00 0.00 0.00 0.00 0.00 0.00 0.00
0.00 0.00 0.00 0.00 0.00 0.00 0.00 0.00 0.00 0.00 0.00 0.00 0.00 0.00 0.00 0.00 0.00 0.00 0.01 0.04 0.14 0.24 0.39 0.57 0.63 0.70 0.67 0.48 0.26 0.17 0.09 0.06 0.06 0.04 0.03 0.02 0.01 0.00 0.00 0.00 0.00 0.00 0.00 0.00
0.00 0.00 0.00 0.00 0.00 0.00 0.00 0.00 0.00 0.00 0.01 0.04 0.03 0.01 0.01 0.00 0.00 0.00 0.01 0.03 0.08 0.15 0.29 0.40 0.40 0.37 0.34 0.26 0.19 0.14 0.11 0.14 0.12 0.07 0.05 0.05 0.04 0.03 0.02 0.01 0.00 0.00 0.00 0.00
0.00 0.00 0.00 0.00 0.00 0.00 0.00 0.00 0.00 0.02 0.08 0.15 0.07 0.02 0.03 0.01 0.00 0.00 0.01 0.03 0.08 0.16 0.24 0.30 0.35 0.34 0.25 0.18 0.13 0.09 0.08 0.09 0.10 0.08 0.07 0.07 0.07 0.06 0.05 0.03 0.01 0.01 0.00 0.00
0.01 0.01 0.00 0.00 0.00 0.00 0.00 0.00 0.00 0.00 0.01 0.01 0.01 0.02 0.02 0.01 0.00 0.00 0.01 0.02 0.05 0.08 0.11 0.14 0.17 0.17 0.15 0.10 0.06 0.05 0.04 0.04 0.05 0.04 0.06 0.07 0.09 0.07 0.06 0.08 0.05 0.02 0.01 0.00
0.00 0.00 0.00 0.00 0.00 0.00 0.00 0.00 0.00 0.00 0.00 0.00 0.00 0.04 0.05 0.04 0.03 0.01 0.00 0.01 0.01 0.02 0.02 0.03 0.04 0.04 0.04 0.03 0.03 0.03 0.03 0.03 0.03 0.03 0.05 0.06 0.10 0.11 0.10 0.10 0.07 0.05 0.05 0.03
0.00 0.00 0.00 0.00 0.00 0.00 0.00 0.00 0.00 0.00 0.00 0.00 0.00 0.06 0.13 0.13 0.09 0.02 0.00 0.00 0.00 0.00 0.01 0.01 0.01 0.01 0.01 0.01 0.02 0.02 0.02 0.02 0.02 0.03 0.04 0.05 0.06 0.09 0.11 0.09 0.09 0.10 0.09 0.07
0.00 0.00 0.00 0.00 0.00 0.00 0.00 0.00 0.00 0.00 0.00 0.00 0.00 0.05 0.07 0.05 0.02 0.00 0.00 0.00 0.00 0.00 0.00 0.00 0.00 0.00 0.01 0.01 0.01 0.01 0.01 0.01 0.01 0.02 0.02 0.02 0.03 0.05 0.08 0.10 0.11 0.12 0.12 0.11
0.00 0.00 0.00 0.00 0.00 0.00 0.00 0.00 0.00 0.00 0.00 0.00 0.01 0.04 0.03 0.02 0.01 0.00 0.00 0.00 0.00 0.00 0.00 0.00 0.00 0.00 0.00 0.00 0.01 0.01 0.01 0.02 0.02 0.02 0.01 0.01 0.01 0.02 0.03 0.05 0.08 0.11 0.12 0.11
0.00 0.00 0.00 0.01 0.01 0.00 0.00 0.00 0.00 0.00 0.00 0.00 0.05 0.10 0.04 0.02 0.00 0.00 0.00 0.00 0.00 0.00 0.00 0.00 0.00 0.00 0.00 0.00 0.00 0.00 0.01 0.01 0.01 0.01 0.01 0.00 0.00 0.00 0.01 0.01 0.03 0.06 0.09 0.10
0.00 0.00 0.00 0.00 0.00 0.00 0.00 0.00 0.00 0.00 0.00 0.01 0.04 0.10 0.03 0.01 0.00 0.00 0.00 0.00 0.00 0.00 0.00 0.00 0.00 0.00 0.00 0.00 0.00 0.00 0.00 0.00 0.00 0.00 0.00 0.00 0.00 0.00 0.00 0.00 0.01 0.02 0.05 0.08
0.00 0.00 0.00 0.00 0.00 0.00 0.00 0.00 0.00 0.00 0.00 0.02 0.02 0.03 0.01 0.00 0.00 0.00 0.00 0.00 0.00 0.00 0.00 0.00 0.00 0.00 0.00 0.00 0.00 0.00 0.00 0.00 0.00 0.00 0.00 0.01 0.01 0.01 0.01 0.01 0.01 0.01 0.02 0.04
0.00 0.00 0.00 0.00 0.00 0.00 0.00 0.00 0.00 0.00 0.00 0.00 0.00 0.00 0.00 0.00 0.00 0.00 0.00 0.00 0.00 0.00 0.00 0.00 0.00 0.00 0.00 0.00 0.00 0.00 0.00 0.00 0.00 0.00 0.01 0.01 0.01 0.02 0.02 0.03 0.03 0.03 0.03 0.04
0.00 0.00 0.00 0.00 0.00 0.00 0.03 0.01 0.00 0.00 0.00 0.00 0.00 0.00 0.00 0.00 0.00 0.00 0.00 0.00 0.00 0.00 0.00 0.00 0.00 0.00 0.00 0.00 0.00 0.00 0.00 0.00 0.00 0.00 0.00 0.00 0.01 0.01 0.01 0.01 0.02 0.02 0.02 0.03
0.00 0.00 0.00 0.00 0.00 0.02 0.03 0.00 0.00 0.00 0.00 0.00 0.00 0.00 0.00 0.00 0.00 0.00 0.00 0.00 0.00 0.00 0.00 0.00 0.00 0.00 0.00 0.00 0.00 0.00 0.00 0.00 0.00 0.00 0.00 0.00 0.01 0.01 0.01 0.01 0.02 0.02 0.03 0.03
0.00 0.00 0.00 0.00 0.00 0.01 0.00 0.00 0.00 0.00 0.00 0.00 0.00 0.00 0.00 0.00 0.00 0.00 0.00 0.00 0.00 0.00 0.00 0.00 0.00 0.00 0.00 0.00 0.00 0.00 0.00 0.00 0.00 0.00 0.00 0.00 0.00 0.00 0.01 0.01 0.03 0.04 0.05 0.04
0.00 0.00 0.00 0.00 0.00 0.01 0.01 0.00 0.00 0.00 0.00 0.00 0.00 0.00 0.00 0.00 0.00 0.00 0.00 0.00 0.00 0.00 0.00 0.00 0.00 0.00 0.00 0.00 0.00 0.00 0.00 0.00 0.00 0.00 0.00 0.00 0.00 0.01 0.01 0.02 0.04 0.05 0.06 0.05
0.00 0.00 0.00 0.00 0.00 0.00 0.00 0.00 0.00 0.00 0.00 0.00 0.00 0.00 0.00 0.00 0.00 0.00 0.00 0.00 0.00 0.00 0.00 0.00 0.00 0.00 0.00 0.00 0.01 0.01 0.01 0.01 0.01 0.01 0.01 0.01 0.01 0.02 0.02 0.03 0.06 0.07 0.06 0.06
0.00 0.00 0.00 0.00 0.00 0.00 0.00 0.00 0.00 0.00 0.00 0.00 0.00 0.00 0.00 0.00 0.00 0.00 0.00 0.00 0.00 0.00 0.00 0.00 0.00 0.00 0.00 0.01 0.02 0.03 0.03 0.02 0.03 0.03 0.03 0.03 0.04 0.03 0.02 0.06 0.10 0.11 0.11 0.09
0.00 0.00 0.00 0.00 0.00 0.00 0.00 0.00 0.00 0.00 0.00 0.00 0.00 0.00 0.00 0.00 0.00 0.00 0.00 0.00 0.00 0.00 0.00 0.00 0.00 0.01 0.01 0.02 0.03 0.04 0.03 0.04 0.04 0.05 0.05 0.05 0.06 0.07 0.07 0.08 0.11 0.12 0.12 0.08
0.00 0.00 0.00 0.00 0.00 0.00 0.00 0.00 0.00 0.00 0.00 0.00 0.00 0.00 0.00 0.00 0.00 0.00 0.00 0.00 0.00 0.00 0.00 0.00 0.01 0.02 0.03 0.02 0.03 0.04 0.04 0.05 0.07 0.07 0.07 0.07 0.08 0.07 0.08 0.10 0.10 0.09 0.08 0.08
0.00 0.00 0.00 0.00 0.00 0.00 0.00 0.00 0.00 0.00 0.00 0.00 0.00 0.00 0.00 0.00 0.00 0.00 0.00 0.00 0.00 0.00 0.00 0.02 0.04 0.05 0.04 0.04 0.04 0.04 0.05 0.08 0.10 0.09 0.09 0.09 0.09 0.08 0.09 0.10 0.10 0.08 0.08 0.07
0.00 0.00 0.00 0.00 0.00 0.00 0.00 0.00 0.00 0.00 0.00 0.00 0.00 0.00 0.00 0.00 0.00 0.00 0.00 0.00 0.00 0.01 0.03 0.06 0.07 0.08 0.07 0.06 0.06 0.06 0.08 0.11 0.14 0.13 0.12 0.12 0.11 0.10 0.09 0.10 0.10 0.06 0.03 0.03
MSLP
1007.29 1007.66 1007.85 1007.86 1007.73 1007.51 1007.23 1006.93 1006.62 1006.30 1005.95 1005.55 1005.09 1004.59 1004.06 1003.54 1003.08 1002.72 1002.46 1002.33 1002.30 1002.36 1002.48 1002.63 1002.81 1003.00 1003.23 1003.51 1003.84 1004.23 1004.69 1005.18 1005.69 1006.19 1006.65 1007.07 1007.44 1007.77 1008.08 1008.37 1008.66 1008.96 1009.26 1009.57
1007.86 1008.11 1008.16 1008.05 1007.83 1007.57 1007.32 1007.10 1006.92 1006.75 1006.55 1006.28 1005.92 1005.48 1004.96 1004.43 1003.94 1003.54 1003.27 1003.14 1003.15 1003.27 1003.45 1003.67 1003.88 1004.08 1004.27 1004.46 1004.67 1004.93 1005.23 1005.59 1005.97 1006.37 1006.75 1007.10 1007.41 1007.68 1007.92 1008.15 1008.39 1008.65 1008.94 1009.24
1008.36 1008.47 1008.39 1008.17 1007.89 1007.64 1007.45 1007.35 1007.33 1007.35 1007.34 1007.24 1007.03 1006.68 1006.23 1005.72 1005.24 1004.84 1004.58 1004.47 1004.52 1004.69 1004.92 1005.17 1005.40 1005.57 1005.69 1005.78 1005.86 1005.96 1006.10 1006.30 1006.53 1006.80 1007.06 1007.31 1007.52 1007.70 1007.86 1008.02 1008.19 1008.39 1008.63 1008.91
1008.70 1008.68 1008.49 1008.20 1007.91 1007.69 1007.61 1007.67 1007.84 1008.07 1008.28 1008.38 1008.33 1008.11 1007.75 1007.30 1006.84 1006.46 1006.21 1006.11 1006.18 1006.37 1006.62 1006.88 1007.09 1007.22 1007.27 1007.25 1007.20 1007.15 1007.14 1007.18 1007.27 1007.40 1007.55 1007.68 1007.79 1007.87 1007.93 1007.99 1008.08 1008.20 1008.39 1008.63
1008.86 1008.72 1008.45 1008.13 1007.86 1007.72 1007.76 1008.00 1008.39 1008.85 1009.27 1009.58 1009.70 1009.61 1009.35 1008.96 1008.53 1008.16 1007.90 1007.80 1007.85 1008.02 1008.26 1008.49 1008.66 1008.74 1008.72 1008.61 1008.46 1008.30 1008.17 1008.09 1008.07 1008.09 1008.14 1008.17 1008.19 1008.17 1008.13 1008.09 1008.08 1008.12 1008.23 1008.42
1008.86 1008.63 1008.30 1007.97 1007.75 1007.70 1007.89 1008.31 1008.90 1009.56 1010.19 1010.68 1010.96 1011.01 1010.83 1010.49 1010.09 1009.71 1009.42 1009.28 1009.28 1009.40 1009.59 1009.77 1009.89 1009.92 1009.84 1009.67 1009.46 1009.23 1009.04 1008.90 1008.81 1008.77 1008.75 1008.72 1008.66 1008.57 1008.44 1008.30 1008.20 1008.15 1008.17 1008.28
1008.76 1008.46 1008.09 1007.78 1007.60 1007.65 1007.97 1008.54 1009.30 1010.13 1010.93 1011.57 1011.99 1012.14 1012.03 1011.74 1011.34 1010.94 1010.61 1010.41 1010.33 1010.38 1010.48 1010.60 1010.66 1010.64 1010.53 1010.34 1010.11 1009.87 1009.67 1009.52 1009.43 1009.38 1009.34 1009.28 1009.17 1009.02 1008.82 1008.60 1008.40 1008.26 1008.19 1008.21
1008.65 1008.29 1007.91 1007.61 1007.48 1007.60 1008.01 1008.69 1009.55 1010.50 1011.41 1012.17 1012.68 1012.91 1012.87 1012.60 1012.22 1011.79 1011.41 1011.13 1010.97 1010.92 1010.94 1010.98 1010.98 1010.93 1010.81 1010.63 1010.42 1010.23 1010.07 1009.96 1009.91 1009.88 1009.85 1009.78 1009.66 1009.47 1009.22 1008.94 1008.66 1008.42 1008.26 1008.18
1008.60 1008.21 1007.83 1007.54 1007.44 1007.60 1008.05 1008.76 1009.68 1010.67 1011.63 1012.44 1013.01 1013.30 1013.31 1013.09 1012.71 1012.28 1011.86 1011.51 1011.27 1011.14 1011.07 1011.03 1010.99 1010.92 1010.80 1010.66 1010.51 1010.38 1010.29 1010.25 1010.25 1010.26 1010.26 1010.21 1010.09 1009.87 1009.59 1009.26 1008.91 1008.59 1008.34 1008.17
1008.68 1008.29 1007.91 1007.63 1007.54 1007.69 1008.13 1008.82 1009.71 1010.69 1011.64 1012.46 1013.06 1013.39 1013.45 1013.27 1012.93 1012.50 1012.07 1011.68 1011.39 1011.18 1011.04 1010.95 1010.87 1010.79 1010.69 1010.59 1010.50 1010.43 1010.41 1010.43 1010.49 1010.54 1010.56 1010.52 1010.40 1010.18 1009.87 1009.50 1009.11 1008.73 1008.41 1008.16
1008.90 1008.55 1008.20 1007.93 1007.82 1007.94 1008.32 1008.93 1009.74 1010.64 1011.53 1012.32 1012.91 1013.27 1013.38 1013.25 1012.97 1012.58 1012.17 1011.78 1011.45 1011.20 1011.02 1010.89 1010.79 1010.70 1010.62 1010.54 1010.50 1010.48 1010.50 1010.56 1010.63 1010.70 1010.72 1010.68 1010.55 1010.31 1009.99 1009.61 1009.20 1008.79 1008.42 1008.11
1009.25 1008.97 1008.67 1008.42 1008.30 1008.37 1008.65 1009.16 1009.84 1010.62 1011.41 1012.14 1012.71 1013.07 1013.22 1013.17 1012.95 1012.63 1012.26 1011.89 1011.57 1011.30 1011.09 1010.93 1010.81 1010.72 1010.64 1010.58 1010.55 1010.54 1010.57 1010.62 1010.67 1010.71 1010.70 1010.63 1010.48 1010.24 1009.92 1009.54 1009.13 1008.72 1008.35 1008.02
1009.69 1009.50 1009.27 1009.06 1008.94 1008.96 1009.15 1009.53 1010.07 1010.71 1011.39 1012.02 1012.54 1012.90 1013.09 1013.09 1012.94 1012.69 1012.38 1012.05 1011.74 1011.47 1011.25 1011.07 1010.93 1010.82 1010.72 1010.65 1010.60 1010.57 1010.56 1010.56 1010.55 1010.53 1010.46 1010.34 1010.16 1009.91 1009.60 1009.25 1008.88 1008.51 1008.16 1007.85
1010.15 1010.08 1009.95 1009.80 1009.70 1009.68 1009.80 1010.06 1010.46 1010.96 1011.50 1012.03 1012.48 1012.82 1013.01 1013.05 1012.95 1012.76 1012.49 1012.20 1011.91 1011.63 1011.40 1011.20 1011.03 1010.89 1010.77 1010.67 1010.57 1010.48 1010.40 1010.32 1010.22 1010.11 1009.97 1009.79 1009.58 1009.32 1009.04 1008.74 1008.43 1008.13 1007.84 1007.58
1010.60 1010.66 1010.64 1010.58 1010.52 1010.50 1010.56 1010.73 1011.01 1011.37 1011.78 1012.19 1012.56 1012.84 1013.00 1013.04 1012.96 1012.79 1012.55 1012.26 1011.97 1011.68 1011.42 1011.19 1010.99 1010.82 1010.65 1010.50 1010.35 1010.19 1010.02 1009.84 1009.65 1009.44 1009.22 1008.99 1008.74 1008.50 1008.26 1008.02 1007.80 1007.59 1007.38 1007.19
1011.01 1011.19 1011.29 1011.33 1011.33 1011.34 1011.38 1011.49 1011.67 1011.91 1012.19 1012.48 1012.74 1012.94 1013.04 1013.04 1012.93 1012.73 1012.47 1012.16 1011.83 1011.51 1011.22 1010.95 1010.70 1010.48 1010.28 1010.07 1009.86 1009.64 1009.39 1009.13 1008.85 1008.56 1008.27 1007.99 1007.73 1007.50 1007.31 1007.15 1007.02 1006.90 1006.79 1006.67
1011.38 1011.67 1011.88 1012.02 1012.10 1012.15 1012.20 1012.27 1012.38 1012.52 1012.69 1012.86 1012.99 1013.08 1013.08 1013.00 1012.82 1012.55 1012.23 1011.86 1011.47 1011.09 1010.74 1010.42 1010.13 1009.87 1009.63 1009.39 1009.13 1008.86 1008.56 1008.23 1007.89 1007.54 1007.21 1006.90 1006.64 1006.44 1006.29 1006.20 1006.15 1006.12 1006.10 1006.05
1011.73 1012.09 1012.39 1012.62 1012.78 1012.89 1012.96 1013.02 1013.08 1013.14 1013.20 1013.25 1013.26 1013.22 1013.10 1012.90 1012.61 1012.25 1011.82 1011.37 1010.90 1010.45 1010.02 1009.65 1009.32 1009.02 1008.76 1008.50 1008.23 1007.93 1007.61 1007.26 1006.89 1006.51 1006.16 1005.84 1005.59 1005.41 1005.30 1005.26 1005.27 1005.30 1005.33 1005.34
1012.07 1012.48 1012.84 1013.14 1013.36 1013.51 1013.61 1013.67 1013.69 1013.69 1013.66 1013.59 1013.48 1013.31 1013.06 1012.73 1012.32 1011.84 1011.32 1010.76 1010.20 1009.67 1009.18 1008.75 1008.38 1008.07 1007.79 1007.53 1007.27 1006.99 1006.67 1006.33 1005.96 1005.59 1005.24 1004.92 1004.68 1004.51 1004.42 1004.40 1004.44 1004.50 1004.56 1004.58
1012.44 1012.85 1013.24 1013.57 1013.83 1014.01 1014.13 1014.17 1014.16 1014.10 1013.99 1013.83 1013.61 1013.32 1012.95 1012.50 1011.98 1011.40 1010.77 1010.12 1009.48 1008.87 1008.33 1007.85 1007.45 1007.13 1006.85 1006.61 1006.37 1006.12 1005.84 1005.53 1005.20 1004.85 1004.51 1004.20 1003.95 1003.77 1003.68 1003.66 1003.69 1003.74 1003.80 1003.83
1012.80 1013.20 1013.58 1013.91 1014.18 1014.37 1014.48 1014.50 1014.46 1014.34 1014.16 1013.92 1013.60 1013.21 1012.75 1012.21 1011.61 1010.94 1010.24 1009.52 1008.82 1008.16 1007.57 1007.06 1006.64 1006.30 1006.03 1005.81 1005.61 1005.40 1005.16 1004.90 1004.60 1004.28 1003.95 1003.65 1003.39 1003.20 1003.07 1003.02 1003.02 1003.05 1003.08 1003.10
1013.15 1013.51 1013.86 1014.16 1014.41 1014.58 1014.66 1014.65 1014.56 1014.39 1014.15 1013.83 1013.45 1012.99 1012.47 1011.87 1011.21 1010.50 1009.76 1009.01 1008.27 1007.58 1006.96 1006.42 1005.98 1005.63 1005.36 1005.15 1004.97 1004.79 1004.60 1004.37 1004.10 1003.81 1003.50 1003.19 1002.92 1002.69 1002.53 1002.43 1002.39 1002.38 1002.40 1002.41
1013.45 1013.76 1014.07 1014.33 1014.53 1014.65 1014.69 1014.63 1014.48 1014.25 1013.95 1013.58 1013.14 1012.65 1012.10 1011.48 1010.81 1010.10 1009.35 1008.59 1007.85 1007.14 1006.49 1005.93 1005.46 1005.09 1004.80 1004.57 1004.39 1004.23 1004.05 1003.85 1003.61 1003.33 1003.03 1002.72 1002.43 1002.17 1001.97 1001.83 1001.74 1001.72 1001.72 1001.75
1013.66 1013.94 1014.19 1014.41 1014.55 1014.62 1014.59 1014.47 1014.26 1013.97 1013.61 1013.19 1012.73 1012.22 1011.66 1011.06 1010.41 1009.72 1009.00 1008.26 1007.52 1006.81 1006.14 1005.54 1005.03 1004.61 1004.27 1004.01 1003.79 1003.61 1003.42 1003.22 1002.99 1002.72 1002.42 1002.10 1001.80 1001.52 1001.29 1001.13 1001.03 1001.00 1001.03 1001.09
1013.78 1014.02 1014.24 1014.40 1014.50 1014.50 1014.41 1014.22 1013.94 1013.59 1013.19 1012.74 1012.26 1011.75 1011.21 1010.64 1010.03 1009.38 1008.70 1007.99 1007.27 1006.54 1005.85 1005.20 1004.62 1004.13 1003.71 1003.37 1003.09 1002.85 1002.63 1002.41 1002.16 1001.89 1001.59 1001.28 1000.97 1000.69 1000.47 1000.30 1000.22 1000.22 1000.30 1000.43
1013.78 1014.01 1014.21 1014.34 1014.39 1014.34 1014.19 1013.94 1013.61 1013.21 1012.77 1012.29 1011.80 1011.30 1010.79 1010.26 1009.70 1009.10 1008.46 1007.78 1007.06 1006.32 1005.59 1004.87 1004.21 1003.61 1003.08 1002.63 1002.26 1001.94 1001.65 1001.38 1001.12 1000.84 1000.54 1000.24 999.96 999.70 999.50 999.38 999.34 999.40 999.55 999.79
Thickness
5813 5800 5793 5799 5808 5807 5810 5810 5812 5829 5843 5826 5814 5816 5831 5842 5840 5837 5836 5836 5832 5828 5829 5826 5815 5810 5807 5801 5795 5792 5788 5785 5781 5776 5771 5767 5764 5763 5762 5761 5757 5753 5749 5746
5797 5784 5801 5810 5809 5806 5806 5802 5806 5819 5830 5819 5807 5809 5825 5833 5831 5829 5825 5822 5816 5809 5803 5797 5792 5783 5787 5784 5779 5777 5775 5774 5772 5770 5766 5762 5759 5758 5757 5755 5752 5749 5745 5742
5783 5783 5806 5805 5802 5797 5796 5792 5793 5794 5805 5810 5802 5797 5812 5822 5826 5822 5816 5809 5802 5790 5777 5768 5760 5751 5751 5757 5760 5759 5763 5763 5763 5762 5760 5757 5753 5749 5748 5746 5745 5744 5742 5739
5794 5805 5803 5797 5792 5793 5783 5797 5794 5791 5783 5782 5795 5775 5797 5806 5798 5791 5785 5781 5773 5764 5754 5744 5738 5733 5730 5733 5741 5746 5751 5752 5752 5752 5749 5746 5742 5739 5740 5740 5741 5740 5738 5736
5785 5798 5795 5788 5793 5795 5789 5799 5793 5789 5780 5774 5782 5775 5781 5794 5775 5763 5763 5761 5758 5751 5739 5729 5727 5723 5722 5723 5725 5731 5735 5738 5739 5739 5738 5736 5734 5734 5736 5736 5735 5733 5734 5733
5794 5809 5806 5800 5806 5807 5802 5795 5792 5787 5765 5727 5731 5738 5755 5768 5762 5753 5752 5751 5746 5739 5731 5724 5722 5720 5718 5720 5717 5717 5720 5723 5724 5726 5727 5726 5724 5724 5724 5724 5724 5725 5727 5728
5772 5793 5807 5811 5796 5799 5792 5775 5757 5748 5723 5706 5721 5726 5734 5747 5750 5746 5742 5739 5737 5733 5726 5721 5717 5714 5712 5710 5708 5708 5709 5709 5709 5711 5712 5714 5715 5715 5714 5715 5716 5718 5719 5721
5747 5753 5790 5804 5793 5780 5782 5776 5752 5737 5739 5746 5744 5735 5725 5737 5738 5737 5735 5732 5730 5726 5721 5715 5710 5707 5704 5701 5699 5697 5695 5695 5696 5697 5697 5699 5700 5702 5703 5705 5708 5711 5713 5715
5763 5767 5802 5811 5808 5794 5777 5774 5781 5762 5759 5754 5756 5727 5718 5723 5722 5723 5722 5720 5717 5715 5712 5707 5702 5697 5693 5690 5687 5685 5684 5683 5683 5683 5683 5684 5685 5686 5689 5692 5696 5699 5701 5704
5786 5770 5791 5807 5810 5804 5793 5783 5770 5752 5734 5730 5749 5726 5708 5705 5703 5709 5707 5705 5704 5703 5700 5696 5692 5688 5683 5679 5675 5673 5671 5669 5668 5668 5668 5669 5670 5671 5674 5677 5679 5682 5686 5689
5790 5770 5777 5790 5783 5780 5781 5776 5768 5757 5746 5724 5718 5714 5716 5706 5703 5700 5698 5696 5693 5689 5686 5682 5679 5676 5672 5668 5663 5658 5655 5653 5652 5651 5651 5651 5653 5655 5657 5660 5663 5666 5670 5674
5784 5773 5761 5774 5793 5797 5784 5772 5762 5737 5731 5733 5721 5699 5713 5706 5702 5695 5689 5686 5681 5677 5673 5669 5666 5661 5656 5651 5646 5642 5638 5635 5634 5633 5633 5633 5634 5635 5638 5642 5645 5649 5653 5658
5770 5754 5741 5754 5765 5772 5768 5769 5765 5753 5737 5724 5706 5688 5703 5700 5695 5688 5680 5673 5669 5664 5660 5656 5652 5646 5640 5634 5629 5625 5621 5619 5617 5616 5615 5614 5614 5615 5618 5621 5625 5629 5634 5640
5771 5753 5741 5732 5746 5763 5761 5762 5757 5741 5721 5711 5706 5690 5691 5687 5682 5675 5669 5663 5657 5651 5646 5642 5637 5631 5624 5617 5612 5607 5604 5602 5600 5599 5598 5597 5596 5598 5600 5603 5606 5611 5615 5621
5771 5751 5751 5755 5766 5766 5758 5750 5743 5729 5716 5703 5699 5693 5688 5680 5671 5664 5658 5652 5644 5637 5632 5626 5617 5609 5602 5596 5591 5587 5583 5581 5579 5578 5578 5579 5580 5581 5583 5585 5589 5593 5597 5603
5764 5748 5746 5746 5759 5757 5744 5733 5726 5716 5707 5698 5691 5687 5688 5676 5665 5653 5645 5636 5627 5622 5615 5605 5595 5587 5581 5576 5572 5569 5566 5565 5563 5562 5561 5562 5563 5564 5566 5568 5571 5575 5579 5584
5751 5736 5729 5731 5749 5746 5718 5710 5705 5698 5695 5686 5676 5676 5672 5658 5646 5638 5630 5621 5614 5605 5593 5583 5576 5570 5566 5563 5561 5560 5559 5557 5555 5554 5554 5553 5554 5555 5555 5556 5558 5560 5562 5566
5740 5731 5727 5730 5733 5707 5698 5710 5701 5690 5689 5684 5676 5663 5652 5643 5636 5628 5618 5608 5595 5584 5576 5571 5567 5564 5561 5559 5557 5555 5552 5550 5548 5546 5546 5545 5546 5547 5548 5549 5549 5548 5548 5549
5750 5733 5723 5722 5713 5707 5697 5699 5690 5677 5673 5669 5655 5646 5639 5631 5622 5616 5606 5591 5579 5573 5569 5566 5563 5560 5558 5554 5552 5549 5545 5541 5539 5537 5536 5536 5537 5538 5539 5540 5541 5540 5539 5538
5750 5741 5727 5713 5696 5691 5684 5690 5690 5676 5666 5655 5644 5633 5625 5615 5602 5600 5591 5580 5574 5569 5564 5561 5559 5557 5553 5550 5546 5540 5536 5532 5529 5528 5527 5527 5527 5528 5530 5532 5532 5532 5531 5531
5727 5727 5717 5704 5693 5693 5686 5688 5680 5653 5645 5648 5638 5626 5613 5600 5587 5584 5582 5576 5570 5566 5562 5559 5556 5551 5547 5543 5537 5531 5526 5522 5519 5518 5517 5517 5518 5518 5520 5522 5523 5523 5523 5523
5718 5709 5699 5693 5682 5676 5686 5677 5656 5644 5645 5637 5626 5615 5604 5594 5587 5579 5574 5570 5566 5563 5560 5555 5550 5546 5540 5534 5526 5521 5516 5512 5509 5508 5507 5508 5509 5510 5514 5515 5516 5516 5516 5516
5718 5700 5692 5686 5680 5686 5682 5668 5660 5650 5637 5627 5617 5608 5597 5587 5581 5576 5571 5567 5563 5559 5555 5549 5542 5536 5529 5521 5513 5507 5505 5500 5498 5497 5499 5500 5501 5503 5504 5506 5507 5509 5510 5511
5710 5708 5696 5686 5687 5682 5673 5665 5655 5643 5631 5622 5612 5601 5590 5581 5576 5572 5569 5565 5560 5555 5547 5539 5530 5522 5515 5507 5500 5495 5492 5489 5488 5488 5490 5492 5494 5496 5498 5499 5501 5503 5505 5507
5709 5704 5690 5681 5679 5671 5666 5655 5646 5638 5628 5617 5606 5595 5584 5577 5573 5569 5565 5561 5554 5546 5536 5526 5515 5507 5501 5495 5489 5485 5481 5478 5479 5481 5483 5485 5488 5490 5492 5495 5497 5499 5502 5504
5710 5693 5677 5668 5666 5657 5652 5648 5641 5630 5621 5611 5601 5592 5583 5575 5570 5566 5560 5554 5545 5535 5524 5514 5504 5497 5491 5485 5481 5478 5474 5472 5472 5473 5476 5479 5482 5485 5488 5491 5494 5497 5499 5500